Theta_e
303 304 304 304 305 305 306 305 305 306 305 307 310 310 315 319 313 304 304 305 305 310 313 309 309 309 304 302 303 304 306 304 302 304 304 301 303 305 304 302 303 303 301 304 305 302 303 305 303 303 303 302 302 300 298 298 297 299 300 298 296 297 298 299 299 298 297 298 296 295 296 296 297 298 298 298 298 298 297 296 295 295 296 296 295 296 295
303 304 304 304 305 305 305 305 305 304 304 306 309 313 322 319 307 305 306 303 307 316 317 313 311 307 304 304 304 303 304 306 306 306 305 303 302 305 306 301 300 302 303 304 304 302 301 302 301 300 302 301 299 298 298 298 299 299 298 297 295 297 300 299 298 298 298 298 296 295 296 296 296 297 298 298 297 296 296 295 295 295 295 295 295 295 295
304 305 305 305 305 305 305 304 304 304 305 306 308 312 318 315 308 312 311 302 306 314 313 315 316 311 308 306 304 303 302 303 305 305 303 302 301 303 304 301 300 302 302 303 305 304 301 301 301 299 300 301 300 300 298 297 300 299 296 297 296 296 299 298 297 299 299 298 298 298 297 296 295 295 296 296 295 294 295 295 295 295 295 295 296 295 293
305 305 305 305 305 305 305 304 305 305 304 308 310 306 311 315 313 317 315 306 306 308 306 313 318 314 313 308 302 304 304 302 303 304 303 302 302 303 303 300 301 302 301 303 309 308 301 300 302 301 304 305 301 299 299 299 299 297 297 298 297 297 299 298 298 300 299 298 298 297 296 295 294 295 295 294 294 294 294 295 294 295 294 294 295 294 293
306 306 306 306 306 305 305 305 305 305 304 309 310 304 309 320 314 309 310 308 313 315 311 315 316 310 313 308 300 303 306 303 303 302 300 302 304 304 303 303 302 301 301 302 307 308 303 300 301 300 303 306 302 297 298 299 298 298 298 296 296 297 299 298 299 299 298 297 296 294 295 294 293 294 294 294 294 293 293 294 294 294 294 293 293 292 293
305 305 305 305 305 304 305 305 304 304 305 308 311 308 308 315 310 304 305 307 314 315 310 311 313 310 312 308 301 306 310 306 306 304 301 302 303 302 303 305 305 303 300 300 304 307 305 303 303 301 299 302 302 300 298 297 297 297 297 295 294 296 299 298 297 296 296 295 294 293 293 293 293 294 293 293 293 293 293 293 293 292 292 292 292 291 291
305 305 304 304 305 304 304 305 304 305 307 307 310 310 305 307 307 303 302 307 309 306 304 309 314 312 313 311 304 308 312 307 305 305 304 305 303 301 302 304 305 305 302 301 303 305 304 303 303 301 299 299 301 302 300 298 296 296 297 295 293 295 300 299 296 295 295 294 294 293 293 293 293 293 292 291 291 292 292 292 292 292 291 291 290 289 289
304 305 304 304 306 304 304 306 306 307 309 305 307 309 306 308 310 306 307 310 307 305 306 312 317 311 311 311 304 306 311 307 305 304 303 304 304 302 301 302 305 307 305 303 303 303 302 301 301 300 298 299 301 301 299 297 297 297 298 296 293 294 299 299 296 296 295 294 294 294 293 293 291 291 291 291 290 292 292 292 291 291 290 289 288 288 288
303 305 305 304 306 304 304 306 305 307 309 306 307 306 303 305 305 304 310 310 305 306 307 311 319 313 309 309 304 306 310 306 305 305 301 302 305 302 301 303 305 306 304 304 306 304 302 302 301 299 298 299 300 298 296 296 298 299 299 296 294 294 297 297 297 296 295 294 294 293 291 292 293 293 293 291 291 291 292 291 290 289 288 288 288 288 287
304 305 305 304 305 304 304 305 304 307 308 306 307 304 302 305 302 302 312 310 303 306 309 311 317 310 304 306 305 305 309 306 304 303 302 304 306 302 301 302 304 305 305 304 304 302 301 301 300 297 297 297 298 297 296 296 296 299 299 296 293 294 295 296 296 295 295 294 293 292 291 294 297 296 292 291 290 289 289 289 288 288 287 287 287 287 286
304 304 304 304 304 304 305 304 304 307 309 307 305 301 303 309 306 311 325 316 302 304 310 311 313 306 302 305 306 304 307 307 305 300 300 305 304 301 301 301 302 305 304 299 296 295 296 296 296 295 296 297 298 298 297 296 296 298 298 296 294 294 295 296 295 295 296 295 292 292 294 296 296 293 289 289 289 288 288 287 287 288 288 287 286 285 285
304 304 304 304 305 304 305 305 306 308 308 307 306 304 306 308 306 320 341 324 303 305 312 307 304 305 305 305 307 307 306 307 307 303 301 305 304 301 303 302 301 302 299 295 294 294 294 294 295 296 296 297 298 297 298 298 297 297 296 295 296 296 296 295 294 294 296 296 293 294 296 296 294 292 289 288 288 287 287 287 288 288 287 285 285 285 285
304 304 304 304 305 305 305 305 306 306 306 306 306 306 309 307 305 317 335 324 305 306 311 303 298 303 306 304 306 307 303 302 304 303 303 304 303 303 303 302 302 299 295 294 296 296 297 299 300 299 298 299 299 297 298 299 298 296 295 293 293 294 294 294 293 295 296 295 294 294 295 294 293 292 290 288 287 287 287 288 288 287 285 285 285 285 285
304 305 305 304 304 305 304 305 304 304 305 305 305 307 309 308 308 315 324 322 308 300 302 303 302 303 305 305 306 305 302 302 302 301 301 302 304 306 303 300 299 295 292 295 297 297 299 305 308 305 302 304 304 299 298 299 298 296 296 294 293 294 295 293 293 294 294 293 294 294 293 295 293 290 288 287 287 287 287 287 287 285 284 285 285 284 284
305 305 305 305 305 305 305 305 305 304 304 304 304 307 307 307 308 309 310 315 312 304 301 304 305 305 306 305 304 304 306 308 305 300 300 301 303 303 299 295 295 293 292 295 299 301 302 304 306 306 304 305 303 300 299 300 297 295 294 294 292 292 293 294 294 295 294 293 294 293 294 295 291 287 287 287 286 287 287 287 286 285 284 285 284 284 283
305 305 305 305 305 305 305 305 305 304 305 304 304 305 305 305 306 302 303 310 317 311 304 300 299 302 305 303 301 301 305 308 306 304 306 306 304 301 296 292 292 294 295 298 300 303 305 304 301 301 302 301 298 297 298 298 297 295 293 292 292 292 292 293 295 296 294 293 294 293 294 294 289 286 287 287 286 287 287 286 286 286 284 284 284 283 283
305 305 305 305 305 305 304 305 305 304 305 304 304 306 305 304 305 302 305 312 317 309 298 293 294 300 304 303 301 301 302 303 302 302 305 305 303 303 300 294 293 295 297 300 304 307 307 304 302 302 302 299 296 297 298 296 296 296 294 294 296 299 297 294 294 295 294 293 293 293 294 292 287 286 288 287 286 287 287 285 286 285 284 283 283 283 282
305 305 305 305 305 305 304 304 305 305 305 305 305 306 304 304 305 303 306 314 316 306 294 291 296 302 304 303 301 300 300 301 302 303 305 305 301 301 302 299 297 297 296 298 304 307 304 301 299 300 301 299 296 297 298 297 296 296 295 296 298 301 299 295 294 295 294 293 292 293 294 290 286 286 288 287 286 287 286 285 285 284 283 283 283 282 282
305 305 305 305 304 305 304 304 304 304 304 306 306 305 303 303 304 301 305 312 314 307 295 289 294 298 296 296 300 300 298 299 302 305 308 307 300 297 299 299 297 297 297 301 304 303 300 300 298 297 301 303 299 296 296 296 295 295 295 296 296 296 295 294 294 293 293 293 292 292 293 290 286 287 288 286 286 286 285 285 284 283 283 283 282 282 282
305 304 304 305 304 304 304 304 304 304 303 304 305 304 301 302 304 302 305 308 303 300 294 289 291 294 291 293 300 302 299 300 303 305 306 303 298 299 305 304 300 299 302 304 303 299 298 300 299 296 299 302 299 296 296 297 296 293 294 296 295 293 293 294 294 293 292 292 292 291 292 290 286 286 287 286 285 285 284 284 283 283 283 282 282 282 281
304 304 303 304 304 304 304 304 303 303 303 303 303 303 300 300 303 303 301 303 301 300 297 291 290 291 289 290 292 293 296 298 298 300 302 299 296 299 304 303 300 301 301 301 301 299 297 299 299 298 299 299 297 296 296 297 297 294 292 295 296 293 292 293 294 293 291 291 291 291 292 289 286 286 286 285 285 285 284 283 283 282 282 282 281 281 281
303 303 303 303 303 303 304 303 303 303 303 302 303 304 300 298 298 300 300 300 298 297 295 291 289 289 289 290 289 289 291 292 291 293 297 299 297 298 301 302 299 298 297 297 299 299 298 298 298 298 299 298 297 296 295 295 298 296 293 295 296 294 292 292 292 292 292 290 291 291 290 287 286 285 285 285 284 284 283 283 282 282 282 281 281 281 280
302 302 302 303 303 303 303 302 303 303 302 302 303 303 300 298 298 300 300 298 293 292 292 289 291 292 290 290 291 290 290 290 290 289 291 297 300 298 298 299 297 295 295 296 297 300 300 299 296 296 298 297 296 297 297 296 297 295 293 295 295 293 291 289 289 291 291 289 290 290 288 286 285 285 285 284 284 284 283 282 282 281 281 281 280 280 279
301 302 302 302 302 302 303 302 302 302 302 303 304 302 300 299 298 299 299 297 295 298 296 292 293 295 293 291 291 291 290 290 291 290 289 293 298 298 297 295 293 295 297 294 293 295 298 296 295 297 298 296 295 297 298 297 297 294 293 296 295 292 289 288 288 289 289 288 289 289 286 285 285 285 285 284 283 283 282 282 281 281 281 280 280 279 279
301 301 301 302 302 302 302 302 302 302 302 302 303 302 301 300 300 301 302 301 302 305 303 298 295 293 292 292 291 290 290 291 291 291 290 290 293 296 297 294 292 295 295 292 291 296 298 297 296 298 298 295 294 296 296 296 296 293 293 295 295 291 289 289 288 288 288 288 288 287 285 285 285 285 284 284 283 283 282 281 281 281 281 280 280 279 278
301 300 300 301 301 301 301 301 301 301 301 302 302 302 301 301 300 300 301 300 299 303 306 301 296 292 292 292 290 289 290 292 291 291 290 290 290 291 293 293 292 293 293 291 293 297 299 298 298 299 298 295 294 295 295 295 295 293 294 296 293 290 290 289 288 288 288 288 287 286 285 285 285 284 284 283 283 282 282 281 281 281 280 280 278 278 277
301 301 301 301 300 300 300 300 300 301 301 301 301 301 301 301 300 300 301 300 301 307 308 302 296 293 292 291 290 289 290 291 292 292 291 291 291 291 293 294 293 294 296 295 294 296 300 301 298 297 296 294 293 293 293 293 293 293 295 295 291 288 289 289 287 287 287 287 286 285 284 284 284 284 283 283 283 282 281 281 281 280 280 278 277 276 276
301 301 301 301 301 301 300 300 300 301 301 301 302 301 301 301 301 301 302 302 303 305 305 300 296 294 294 292 291 291 290 290 292 292 292 292 292 293 293 293 293 295 298 297 296 298 301 300 296 295 294 293 293 294 293 293 294 295 295 293 290 288 288 287 287 287 287 286 285 284 284 284 284 283 283 283 282 282 281 281 281 280 279 277 275 275 275
300 301 301 301 301 301 301 301 301 300 301 302 301 301 300 299 299 300 300 300 299 299 299 299 297 295 295 294 292 291 291 290 291 292 292 293 293 293 293 293 293 293 295 296 297 299 299 296 295 295 293 291 293 295 295 295 295 295 295 293 290 289 288 287 286 286 285 285 285 284 283 283 283 283 283 282 282 282 281 281 280 279 277 276 275 274 274
300 300 300 300 301 301 301 302 301 300 301 301 301 306 310 304 299 298 300 300 299 300 302 305 301 295 293 293 293 292 292 290 290 291 292 293 293 292 292 292 291 290 293 296 297 298 297 295 295 294 291 290 292 294 295 295 295 295 295 293 291 289 288 287 287 286 285 285 285 283 283 283 283 283 283 282 282 282 281 280 279 278 276 275 274 273 273
300 300 300 300 301 300 301 302 302 301 302 300 302 311 315 307 299 298 300 300 298 300 303 304 299 294 294 294 292 291 291 291 291 292 292 292 292 291 291 292 292 292 296 298 296 295 296 296 296 294 292 293 295 295 294 294 295 294 293 291 290 288 288 287 287 285 284 284 284 283 283 283 283 282 282 282 282 281 280 279 278 277 275 273 273 272 272
300 300 299 299 300 300 300 301 301 301 302 300 300 303 302 300 298 298 299 300 299 302 308 308 300 297 300 297 291 290 292 291 290 291 292 292 291 291 291 292 292 292 295 297 297 295 294 295 295 294 291 291 294 295 293 293 293 291 290 290 289 288 287 286 285 284 283 283 283 283 283 283 282 282 282 281 281 280 278 277 276 275 273 272 272 271 271
300 300 300 299 299 300 300 300 300 301 300 299 299 298 297 298 299 298 299 300 297 298 306 310 303 299 299 296 291 291 292 292 291 292 293 291 290 291 292 292 292 292 293 295 296 294 292 293 294 293 290 289 291 293 292 292 292 290 289 289 288 287 286 286 285 284 283 282 282 282 282 282 282 282 281 280 280 279 277 276 275 273 272 272 271 270 270
300 300 300 300 299 299 299 299 300 300 300 299 298 298 298 298 299 298 299 300 298 298 302 305 305 303 301 299 298 294 292 293 296 296 294 291 289 291 293 293 293 294 293 293 293 294 293 293 293 292 291 289 289 291 292 293 292 290 289 288 287 286 286 285 284 284 283 282 282 282 282 282 282 281 280 279 279 277 275 274 273 272 271 271 270 269 269
300 300 300 300 300 300 299 300 300 299 299 298 297 297 298 298 298 299 299 299 302 307 305 301 304 307 305 305 305 298 291 293 296 294 293 292 290 290 293 295 295 294 292 291 293 294 294 292 291 292 292 291 290 293 294 293 291 289 288 288 286 285 284 284 283 283 282 281 281 281 281 282 281 279 278 278 277 275 274 273 272 271 270 270 269 269 268
300 300 300 300 300 299 299 300 299 299 298 298 297 298 298 298 298 299 299 298 301 307 307 302 303 303 299 300 302 296 291 293 295 293 293 293 291 291 294 297 297 294 292 292 294 293 291 289 290 293 293 292 293 295 294 290 289 288 288 287 285 284 284 283 282 282 282 281 281 281 281 281 280 278 277 277 276 274 272 271 271 270 269 269 268 268 267
300 300 300 300 300 300 299 298 297 298 298 297 297 298 298 299 298 298 298 298 296 298 300 303 303 297 293 295 297 294 292 294 295 294 295 295 294 293 294 297 297 294 292 294 294 291 289 289 290 293 295 294 293 293 291 289 288 288 286 286 285 283 283 282 281 281 281 281 281 281 280 279 278 277 276 276 274 272 271 271 270 270 269 268 267 267 266
300 300 299 300 302 304 303 298 297 298 297 297 299 300 297 299 303 302 299 299 298 295 294 298 299 295 293 296 295 293 292 294 294 294 294 294 294 294 294 295 295 293 293 294 291 288 290 292 291 291 295 295 291 289 289 288 287 287 285 284 283 282 282 281 281 281 281 280 280 280 279 278 277 276 275 274 272 271 271 270 269 269 268 267 266 266 265
301 300 299 300 302 303 302 298 296 298 298 296 299 301 298 298 303 303 300 299 300 297 295 297 296 293 295 298 297 293 291 292 296 297 295 293 294 295 294 294 293 292 294 296 291 286 290 295 291 290 295 296 291 287 287 287 286 285 284 283 282 282 281 281 281 280 280 280 279 279 278 277 276 274 273 272 271 270 270 269 269 268 267 266 265 264 263
300 299 300 301 300 299 298 297 296 298 299 297 299 302 301 300 300 299 300 303 302 296 294 294 292 289 289 293 295 293 291 290 293 295 294 293 293 291 292 293 292 291 295 297 292 288 292 294 292 292 298 298 291 287 287 287 286 284 282 282 282 282 281 281 280 280 279 279 278 278 277 276 274 273 272 271 270 270 269 268 268 267 266 265 264 263 263
299 299 300 300 299 297 297 298 297 297 298 299 301 302 301 300 297 294 298 304 302 295 291 291 293 293 291 290 291 293 292 289 288 289 292 293 291 290 292 293 291 291 295 296 292 291 293 293 293 297 299 296 290 287 286 286 285 284 282 282 281 281 281 280 280 279 279 278 277 277 276 274 272 271 271 270 269 269 268 267 266 266 265 264 263 263 262
299 299 298 298 298 297 298 299 298 297 299 303 303 300 298 299 299 297 297 299 297 294 292 291 291 292 290 288 288 290 289 287 287 289 292 294 292 291 292 292 291 293 295 292 289 291 293 292 296 301 298 291 287 287 287 286 285 284 282 282 281 281 281 280 279 279 278 277 276 275 274 272 271 271 270 269 268 268 267 266 265 265 264 263 262 262 262
298 298 298 298 298 298 300 301 299 298 302 305 303 301 300 300 299 297 297 296 294 293 292 290 290 291 289 287 287 287 286 286 288 290 291 292 291 290 292 293 293 293 291 288 289 294 295 297 302 303 296 288 287 288 287 285 284 282 281 281 281 280 280 279 279 278 277 276 275 274 272 271 271 270 269 268 268 268 267 266 265 264 263 262 262 261 261
298 298 299 300 300 299 301 302 299 299 303 303 301 301 302 301 299 299 300 298 296 294 292 289 290 293 293 289 288 289 289 288 289 290 290 289 290 292 295 296 294 291 288 290 293 294 295 298 301 298 291 288 288 287 286 285 283 282 282 281 280 280 279 279 278 277 277 276 274 273 272 271 270 269 268 268 267 267 266 265 264 263 262 261 261 261 260
301 302 303 305 302 299 301 303 301 301 302 301 302 306 306 302 303 305 301 294 292 292 291 290 290 292 293 290 287 289 290 289 289 290 290 289 291 293 294 293 291 290 291 293 294 294 296 300 300 295 292 290 288 287 286 284 282 282 282 281 280 279 279 278 277 277 276 275 274 272 271 270 269 268 268 267 267 266 265 264 263 262 261 261 261 260 260
300 301 305 307 303 299 300 303 303 302 301 300 303 309 307 303 304 302 293 289 291 293 292 290 290 292 293 291 288 288 289 290 289 289 288 290 293 294 290 288 290 293 294 295 297 300 303 305 300 296 294 292 289 287 286 283 281 281 281 281 280 279 278 277 276 276 275 273 273 272 270 269 268 268 267 267 266 265 264 264 263 262 261 261 260 260 259
300 299 303 307 304 300 301 302 300 299 299 298 300 301 297 293 294 292 285 284 288 289 287 287 288 288 288 288 287 288 289 289 289 288 287 289 293 293 289 289 293 296 296 298 303 307 308 304 299 296 295 292 289 288 286 283 280 280 280 280 279 278 277 276 276 275 274 273 272 271 269 268 268 267 266 266 265 264 263 263 262 261 261 261 260 260 259
302 299 301 304 303 302 302 300 296 295 295 293 292 290 285 286 292 293 286 281 283 286 288 289 290 289 288 287 287 289 289 289 290 289 287 288 291 294 294 295 297 296 295 298 303 308 307 302 298 297 295 291 289 288 287 283 281 279 278 278 278 277 276 276 275 274 273 272 271 270 269 267 267 266 266 265 265 263 263 262 262 261 260 260 260 259 259
298 299 300 300 300 300 297 294 295 299 297 290 287 287 286 290 297 294 284 280 283 286 286 285 288 291 291 289 288 290 290 290 290 290 288 290 294 297 296 297 300 302 301 300 302 304 303 300 298 297 293 290 288 288 285 282 280 279 278 278 278 276 275 275 274 273 272 271 270 269 268 267 266 266 265 264 264 263 262 262 261 260 260 260 259 259 259
295 299 300 298 298 299 295 292 298 303 300 294 294 293 291 295 298 291 283 281 284 285 284 285 288 290 289 289 291 294 293 290 289 291 293 296 298 295 294 297 304 309 308 304 301 301 301 298 295 294 292 289 288 286 282 280 280 279 278 278 277 275 274 274 273 272 271 270 269 268 267 266 266 265 264 263 263 262 262 261 261 260 260 260 259 259 258
297 298 297 294 295 299 298 298 304 308 305 304 305 300 294 297 299 291 283 282 285 288 290 292 292 291 291 294 297 296 292 288 288 291 294 295 294 294 297 303 306 307 308 306 302 300 300 298 294 293 293 290 285 281 280 280 280 279 278 277 276 274 273 273 272 271 271 270 269 267 266 266 265 265 263 263 262 261 261 261 260 260 260 260 259 258 258
302 299 296 291 291 295 296 296 300 303 303 304 302 296 292 294 294 286 282 284 289 293 294 293 291 293 296 297 295 291 290 290 292 295 297 296 294 296 302 308 307 305 305 305 299 297 298 296 292 289 289 287 283 280 280 281 280 279 278 277 275 274 274 273 272 271 270 269 268 267 266 265 265 264 263 262 261 260 260 260 260 260 259 259 258 258 258
Wind_Speed
11 12 11 11 9 6 3 4 5 4 4 3 2 1 3 4 3 5 10 2 5 10 7 2 5 4 0 1 1 1 2 2 0 1 1 1 1 3 2 0 1 1 1 0 0 1 2 3 2 2 3 3 3 2 3 2 1 1 1 2 1 1 1 2 6 6 8 10 2 4 1 1 0 3 2 1 1 2 5 6 4 3 4 4 6 10 5
11 11 9 7 5 3 3 2 3 4 4 4 2 2 2 3 3 5 11 3 2 5 5 2 3 1 0 2 2 2 1 2 1 1 1 1 1 2 1 1 1 0 1 1 2 2 1 2 2 1 2 2 1 2 3 2 1 1 0 1 2 2 1 2 6 7 7 7 4 2 2 1 1 4 3 2 3 4 4 3 2 3 6 5 6 11 8
9 8 6 3 1 2 1 1 2 4 5 3 2 3 3 3 1 3 12 15 8 4 4 5 5 3 2 4 2 2 2 1 1 2 0 0 2 1 1 0 1 0 0 0 2 1 0 2 2 2 2 3 1 1 2 2 1 0 1 1 1 2 1 0 1 4 7 8 7 7 7 5 4 5 6 5 3 4 4 3 2 4 8 5 3 9 13
7 4 3 2 1 2 2 2 1 2 4 3 4 4 2 3 3 2 7 12 10 3 1 5 6 4 4 4 2 2 2 1 1 2 1 0 2 1 1 0 1 1 2 2 3 2 1 2 2 2 3 3 2 1 3 2 1 1 2 3 2 1 1 2 4 6 7 9 11 10 8 8 11 13 14 10 5 3 2 2 3 7 11 9 6 10 17
5 3 2 2 1 1 2 1 1 0 2 2 4 6 4 2 3 2 1 4 5 4 4 5 4 3 4 3 1 1 1 2 1 1 0 0 1 1 1 1 2 1 2 2 3 3 2 2 1 2 4 4 4 1 4 2 1 3 1 3 3 3 2 4 6 8 10 12 15 14 9 10 14 16 15 13 9 4 3 3 9 10 9 11 12 15 19
3 3 2 3 3 4 3 2 0 1 1 1 2 4 5 3 2 1 1 2 2 3 3 3 5 5 4 3 1 1 2 2 0 0 1 1 1 1 2 3 2 1 1 1 1 4 4 3 2 2 3 3 5 4 2 1 1 2 1 3 3 4 3 5 3 7 10 11 13 15 11 10 12 12 13 13 12 9 6 8 11 9 6 12 18 20 20
3 2 2 3 5 5 1 1 1 2 3 2 4 4 3 3 4 0 2 3 3 1 2 4 6 6 4 3 2 2 3 1 1 1 1 3 2 1 1 4 3 2 2 2 1 2 3 4 4 1 2 3 3 3 2 1 2 2 1 2 2 3 3 3 2 6 11 11 13 13 10 9 10 13 14 13 10 10 9 9 10 8 9 14 19 21 20
3 2 2 2 5 5 2 2 3 4 4 3 5 5 1 2 3 1 3 4 2 1 2 3 5 4 3 3 2 2 4 2 1 1 2 1 2 1 1 4 5 3 3 4 2 4 4 4 6 2 1 3 1 1 2 1 3 3 1 2 1 0 3 2 2 5 10 10 10 10 8 9 13 16 15 11 8 7 6 6 6 7 11 16 18 20 15
4 3 4 4 5 6 4 3 2 1 1 2 4 4 3 4 4 5 6 4 3 2 3 3 5 3 3 2 2 1 2 3 2 1 1 2 2 1 2 3 4 2 1 4 5 6 6 6 8 5 3 4 3 2 2 0 4 5 2 1 3 1 3 3 5 5 9 7 8 13 14 11 10 11 11 10 8 4 3 4 5 7 14 19 18 14 10
5 5 6 5 5 5 3 2 1 1 2 3 4 4 5 6 4 4 6 4 3 2 3 3 4 2 1 1 2 0 1 2 1 1 1 1 2 3 4 3 1 3 3 3 5 5 5 6 6 4 4 4 3 3 2 1 1 2 1 1 1 1 1 4 3 4 10 10 10 13 14 10 7 6 5 6 6 6 5 6 7 10 13 14 11 9 10
7 6 6 6 5 5 3 2 2 2 2 2 5 8 7 5 4 3 6 5 2 2 2 2 3 2 1 1 1 1 1 1 1 1 1 1 1 1 3 3 1 2 4 4 3 4 5 4 2 3 3 1 2 2 1 0 1 2 2 0 1 2 1 3 0 1 9 13 12 10 7 7 7 3 2 1 4 8 10 11 13 14 11 8 8 11 14
10 9 9 8 7 7 6 5 4 4 4 5 8 11 8 5 5 4 6 5 1 3 3 1 0 1 1 1 2 2 3 2 2 2 1 1 0 1 2 3 1 2 3 4 5 3 3 0 1 1 1 1 1 1 1 1 2 1 3 2 1 1 1 3 1 2 6 8 8 8 7 7 7 2 2 1 3 6 12 15 15 14 11 10 11 13 15
14 13 12 11 11 9 8 8 7 7 7 6 7 11 10 7 6 5 5 6 1 2 3 2 1 1 2 2 2 2 3 2 1 0 1 1 1 1 0 2 3 2 4 4 5 3 2 2 2 2 2 4 4 2 1 3 3 1 2 2 2 0 1 2 1 2 4 6 7 6 9 11 8 4 3 4 6 8 13 16 12 7 6 9 12 14 14
15 15 14 13 12 11 10 9 8 6 6 4 5 9 10 5 4 4 5 6 2 3 2 4 1 1 2 1 2 1 2 2 2 1 1 1 2 3 3 2 2 4 5 2 3 4 2 2 4 4 4 5 5 3 3 2 2 3 2 2 1 2 1 1 2 1 1 6 7 7 10 11 5 6 7 8 9 12 13 14 9 4 4 10 14 14 15
16 15 15 14 13 13 12 11 10 8 8 5 3 8 8 4 3 5 6 7 4 1 0 2 3 4 2 2 2 2 2 3 2 1 1 0 1 3 4 3 3 6 4 2 3 3 2 3 4 4 4 4 3 3 2 2 1 1 0 0 2 2 1 1 2 2 1 4 7 7 10 9 3 6 10 8 7 13 13 10 5 2 8 16 17 15 18
15 15 15 14 14 13 13 12 11 10 9 6 3 8 10 8 7 9 9 7 6 3 0 2 4 4 2 2 1 2 1 1 1 2 4 3 2 2 3 2 3 3 2 3 3 3 4 3 2 2 2 1 2 3 2 2 3 2 2 2 4 3 1 4 2 2 2 3 5 5 7 6 4 11 14 9 9 15 13 8 4 5 14 20 18 17 19
16 15 15 14 14 13 12 12 11 10 8 6 5 7 10 9 7 9 10 7 5 3 2 3 2 2 2 1 0 1 2 1 2 2 2 2 2 2 3 2 1 1 3 3 3 3 4 3 2 2 2 3 1 2 2 2 4 4 4 5 5 4 4 3 2 4 4 4 4 4 4 4 5 13 15 12 13 15 10 8 9 12 18 19 17 18 19
17 16 16 16 15 14 13 11 9 8 8 6 6 8 11 9 5 6 8 7 5 2 2 1 3 2 1 2 2 1 1 1 2 1 1 2 0 1 2 1 1 1 2 3 3 3 4 2 2 2 2 3 1 2 2 2 4 5 5 4 3 3 3 2 1 4 6 5 4 5 4 2 5 12 14 14 15 12 8 7 11 15 19 18 16 18 19
18 17 17 17 16 16 15 13 11 9 7 6 4 6 10 9 8 11 10 7 5 2 1 2 1 1 2 1 1 1 1 2 2 2 2 3 1 1 1 1 1 1 1 3 3 2 3 1 1 2 1 3 2 1 2 2 2 3 5 4 3 3 3 2 2 3 5 5 5 7 4 1 8 16 16 14 13 8 6 9 14 16 18 17 16 18 17
18 18 18 17 18 17 16 15 13 11 11 8 5 10 14 9 5 6 8 9 6 3 1 2 2 1 2 3 1 1 1 2 2 2 3 1 2 2 4 3 2 2 3 3 2 1 2 1 2 1 1 3 2 0 2 3 2 1 3 3 2 2 2 4 4 3 4 5 4 5 5 4 14 20 14 10 9 7 8 12 15 15 16 16 15 16 16
19 19 18 18 19 18 17 17 15 12 11 7 4 12 20 18 11 8 14 21 15 4 0 1 2 4 4 3 3 2 2 3 2 1 2 2 2 3 3 2 1 1 0 2 2 0 0 1 1 1 0 2 1 1 2 3 3 3 1 1 1 1 1 3 3 2 3 5 4 4 6 7 14 15 10 7 9 9 10 12 12 13 14 13 12 14 17
19 20 19 19 19 19 19 19 17 15 14 8 7 15 22 24 23 18 20 27 23 11 7 8 8 10 11 8 6 5 4 3 2 1 1 0 2 2 3 2 2 1 2 2 2 1 0 1 1 1 1 1 1 2 1 1 2 5 3 2 1 3 3 2 3 3 2 5 8 8 6 7 10 9 7 9 10 10 10 11 11 11 12 11 12 15 18
20 20 20 19 20 20 20 20 19 18 16 12 12 18 22 21 20 18 21 27 25 15 11 10 9 9 9 8 8 7 5 3 1 1 2 2 2 2 1 2 2 1 0 2 2 2 2 2 2 2 1 1 0 2 3 1 1 3 2 1 2 4 2 2 2 4 4 6 8 8 8 10 12 9 6 8 10 9 10 10 10 10 11 11 13 16 17
19 19 19 19 19 19 19 19 19 18 18 15 15 20 25 24 22 23 23 20 12 6 5 5 4 3 3 4 6 7 6 4 1 1 2 3 2 1 0 1 1 1 1 1 1 3 3 1 1 3 1 2 1 1 1 2 2 2 1 3 4 3 1 1 2 5 6 6 6 8 11 12 12 9 8 10 11 9 9 10 10 11 11 11 14 16 17
16 16 17 18 19 19 20 19 18 17 16 16 15 19 22 20 16 14 13 9 5 5 5 3 2 2 3 4 5 6 7 6 3 3 3 3 3 3 2 2 2 3 1 0 1 4 3 1 2 3 1 1 0 0 1 2 2 1 0 2 3 2 1 3 5 6 7 8 8 9 10 9 7 8 10 11 12 11 12 12 13 14 15 16 18 19 16
14 12 12 12 14 16 18 19 19 18 16 14 15 16 18 17 12 10 13 14 10 6 5 2 1 2 1 2 4 5 6 6 6 6 5 4 5 5 5 4 4 3 2 2 3 4 3 2 2 3 1 1 0 1 2 2 1 0 1 3 3 2 2 4 6 8 8 8 10 13 14 10 8 11 12 11 11 12 13 14 15 16 16 18 21 22 19
16 14 11 9 7 8 10 13 17 19 18 17 17 17 17 15 11 9 11 10 5 3 3 3 2 2 2 4 4 6 6 6 7 9 8 7 8 8 7 6 4 3 3 3 2 3 3 3 2 2 2 1 1 2 1 1 1 1 2 3 2 3 4 4 6 7 7 8 10 12 12 11 11 13 14 13 12 12 14 16 17 16 16 17 19 21 22
17 16 15 13 10 6 4 5 7 11 15 17 19 22 22 19 13 7 3 3 2 4 5 4 3 2 3 3 4 6 5 5 6 9 10 9 9 8 8 7 4 2 3 3 2 2 3 2 1 1 1 0 1 0 1 2 2 1 3 3 1 3 4 4 5 6 7 9 9 8 7 9 12 14 13 13 14 14 15 18 18 16 17 19 18 16 17
15 15 16 16 15 12 8 4 1 2 4 7 10 16 20 20 18 15 10 8 14 15 8 3 4 3 1 0 2 3 3 3 4 5 6 7 7 6 7 6 3 2 3 3 3 3 2 2 2 1 1 1 1 1 1 2 1 2 4 4 3 3 3 3 4 5 7 9 8 8 8 9 11 12 11 13 16 15 14 18 19 16 19 23 20 16 16
13 14 14 15 15 15 13 10 4 1 3 2 2 5 9 10 12 14 13 12 15 14 7 3 3 1 1 1 0 2 2 2 2 3 4 4 5 5 5 4 3 2 2 2 2 2 1 0 0 1 2 1 2 1 1 2 1 3 4 5 5 5 4 4 4 4 5 6 6 8 9 9 10 11 11 14 19 17 13 16 19 18 21 25 21 18 20
10 11 12 13 15 16 16 16 11 4 3 4 2 2 3 2 5 8 8 7 8 9 7 5 3 0 1 0 1 2 2 1 1 2 3 3 4 4 3 3 2 2 2 2 1 2 2 1 1 1 2 2 3 3 2 2 1 4 5 5 5 5 5 5 4 4 5 6 6 7 8 7 8 10 11 14 19 18 16 18 21 21 23 24 21 19 22
9 9 9 11 12 14 16 18 16 13 11 11 10 8 5 2 2 5 6 5 6 7 7 5 2 0 1 1 0 1 2 1 1 2 2 2 2 2 2 2 1 1 2 2 1 1 1 2 2 1 0 2 3 3 2 3 3 5 6 6 6 6 5 4 4 4 6 8 8 8 8 8 8 9 11 16 19 18 18 19 21 21 22 23 21 21 24
7 7 7 8 9 10 13 15 16 17 20 22 21 17 11 6 3 4 5 6 6 6 5 4 3 1 0 1 1 1 1 1 1 2 2 1 1 1 1 2 2 2 2 1 1 1 0 1 2 1 1 1 3 3 1 3 5 5 6 6 6 5 5 4 4 4 5 8 8 6 7 9 10 11 15 18 17 17 19 20 20 21 21 19 17 19 22
5 5 6 7 7 8 9 11 13 16 19 20 19 19 19 15 9 5 3 4 6 7 6 4 3 1 2 1 1 1 2 1 1 2 1 1 2 1 0 3 3 2 2 1 1 1 1 1 2 1 2 1 2 1 2 4 5 5 6 6 5 4 4 4 4 3 4 7 8 7 8 11 12 12 15 15 14 16 19 19 18 17 15 12 13 17 20
4 4 4 5 7 7 7 8 10 12 13 13 12 13 17 19 18 15 8 4 4 4 3 3 4 2 2 4 2 3 3 2 1 0 0 1 1 1 2 1 2 1 0 1 1 1 1 1 2 1 1 1 0 2 3 4 5 7 6 5 4 3 3 3 4 4 5 7 8 8 10 12 10 9 10 10 12 16 17 16 17 16 12 10 13 18 19
2 3 4 5 6 6 6 7 7 7 6 7 7 8 10 12 15 18 17 15 12 6 2 1 3 2 1 1 2 3 4 3 0 1 1 0 1 2 2 3 1 0 1 2 2 1 0 1 2 0 1 1 2 4 4 3 5 7 6 4 3 1 2 4 5 5 6 7 7 7 9 9 7 7 8 8 11 15 15 14 16 16 13 12 14 16 18
2 2 4 5 4 5 5 6 6 5 4 5 5 6 5 4 5 9 12 14 15 11 6 4 2 1 1 1 2 4 5 2 1 3 3 0 1 2 2 3 1 1 2 3 0 1 0 1 2 1 2 3 4 4 4 3 4 5 4 3 2 1 2 4 4 4 5 5 4 4 6 6 6 7 8 8 11 13 13 12 13 14 13 13 13 15 18
2 3 4 4 3 3 3 3 3 3 4 4 3 3 4 4 4 5 5 6 7 8 6 5 2 1 1 0 2 4 4 1 1 3 1 1 1 1 1 1 1 1 1 2 2 1 1 2 1 1 4 4 2 3 4 3 3 4 2 1 1 1 2 3 4 5 5 5 6 8 9 9 9 10 9 8 9 10 11 12 14 15 15 15 16 18 20
1 3 3 3 3 2 1 1 2 3 3 2 2 2 3 5 4 3 3 3 3 3 4 3 1 1 2 2 3 4 4 3 2 3 2 1 1 1 1 0 1 1 1 1 2 1 1 2 1 1 4 4 2 3 3 2 2 3 3 2 2 3 4 5 6 6 4 3 6 8 8 8 9 9 7 7 8 10 12 14 15 16 16 17 18 19 20
2 2 2 3 2 3 2 3 3 4 2 3 3 2 2 3 3 1 1 3 3 2 1 2 1 1 2 2 1 2 3 4 1 0 0 1 1 0 1 0 0 1 1 2 2 1 1 1 1 1 3 4 3 4 2 1 2 4 3 2 3 4 6 6 6 6 5 5 7 8 7 9 9 8 8 8 8 9 11 13 15 16 17 18 19 19 18
1 2 2 3 4 4 4 4 3 2 2 2 3 3 2 2 2 1 2 3 2 2 1 2 2 3 2 2 2 2 2 3 2 2 1 1 1 1 1 1 1 1 0 4 2 2 3 0 2 3 4 4 4 3 2 1 2 4 2 1 3 4 5 5 6 6 6 7 8 8 8 11 11 11 11 11 11 10 11 13 14 16 17 18 19 19 18
3 5 6 7 6 5 3 4 4 3 2 2 2 2 1 1 2 2 1 1 0 1 1 1 1 1 1 1 2 2 1 2 2 2 2 1 1 1 1 1 1 1 2 3 0 3 2 1 3 4 5 4 4 4 3 2 3 3 2 2 3 4 4 4 5 5 6 7 8 8 8 10 11 11 11 12 12 12 12 12 14 16 17 18 18 18 19
6 7 7 6 5 3 3 3 3 3 2 2 2 2 2 2 2 1 2 2 0 0 1 1 1 1 1 0 1 1 0 1 1 1 1 0 1 1 2 2 1 0 1 0 2 2 1 3 4 5 4 4 5 4 4 3 4 4 3 3 3 3 3 3 3 3 4 5 7 8 8 9 10 10 10 11 12 12 12 12 13 15 17 18 18 18 20
5 4 3 2 2 4 3 2 2 2 2 2 1 1 1 2 1 1 1 2 0 0 1 1 1 1 2 1 0 1 0 0 1 1 0 1 1 2 1 1 2 1 1 1 1 1 3 4 5 4 3 3 4 4 4 4 3 3 4 3 2 2 2 2 3 3 3 5 7 8 9 9 10 10 11 11 11 11 12 13 14 15 17 17 17 18 20
2 1 3 3 3 3 1 1 2 2 2 0 1 3 3 2 3 3 3 1 1 0 1 1 3 2 2 2 0 1 0 1 1 0 0 1 2 1 1 2 1 1 1 1 2 2 3 4 4 4 4 4 5 4 4 4 4 5 4 3 2 2 1 1 1 1 2 5 7 7 8 9 10 11 11 11 10 10 11 13 15 17 18 17 16 18 21
2 1 3 3 1 2 1 1 1 1 1 2 3 4 4 4 5 4 3 1 2 1 1 1 4 2 1 2 1 0 0 1 1 0 0 2 1 1 2 1 1 2 1 1 3 4 5 5 4 4 5 6 5 5 4 5 6 7 5 4 3 2 1 1 1 1 2 4 6 6 7 8 9 10 10 10 10 10 11 12 14 17 18 17 16 18 22
2 2 3 3 1 2 1 1 1 1 1 3 4 4 3 2 3 2 2 2 3 3 2 1 2 1 1 1 0 0 1 2 1 1 0 1 1 1 1 1 0 1 1 3 5 5 5 4 4 4 5 5 5 5 4 5 7 8 6 5 5 4 3 3 3 3 2 3 4 5 6 7 8 8 9 10 10 11 11 11 14 17 17 16 16 19 22
2 1 2 2 1 1 0 1 0 1 0 1 2 2 1 1 1 2 2 4 3 3 3 2 2 1 0 1 1 0 1 1 0 1 0 1 0 1 2 2 2 3 3 4 6 5 4 4 5 5 5 5 6 5 5 5 7 8 8 7 7 6 5 5 5 4 3 2 2 3 5 6 7 7 8 9 10 11 10 10 12 15 16 15 17 20 23
5 3 2 2 2 2 1 1 1 2 2 1 1 1 1 2 2 4 3 4 3 2 3 3 2 1 1 1 1 1 1 1 1 0 1 1 0 1 0 1 3 4 4 5 5 4 4 5 5 5 5 6 6 5 5 6 8 10 10 9 8 7 7 7 6 5 4 3 1 2 3 4 5 6 7 8 10 11 9 8 11 14 15 16 17 21 23
6 3 2 2 2 1 1 2 2 3 5 3 2 2 3 2 3 5 5 5 3 2 2 2 2 1 1 1 1 1 2 2 2 1 0 1 2 2 1 2 5 5 5 5 5 5 5 4 4 5 6 7 6 5 6 9 11 12 12 11 9 8 9 9 8 6 5 4 2 1 2 3 3 4 5 6 8 8 7 7 11 14 14 15 16 19 21
4 3 1 0 1 2 3 3 3 3 4 4 3 4 4 3 3 5 7 6 4 3 2 1 1 2 2 1 0 0 1 1 1 1 2 3 3 3 3 5 7 6 5 5 4 5 5 4 4 5 5 5 6 8 10 12 13 13 13 13 12 11 11 10 8 7 6 5 4 2 2 2 2 3 3 4 6 7 8 9 12 13 13 14 15 17 19
2 1 0 1 0 2 3 2 2 3 4 4 3 3 3 3 3 6 8 7 4 2 2 2 2 3 1 2 1 1 1 0 0 1 3 4 3 4 6 7 6 5 5 5 5 4 4 4 5 7 8 7 9 12 14 15 14 14 15 15 14 13 13 12 10 8 7 6 5 3 2 2 2 2 3 3 6 8 9 11 12 13 13 12 13 15 17
Wind_Direction
148 148 150 157 160 170 215 302 328 346 6 355 354 50 60 87 140 344 1 66 114 63 61 344 22 72 193 351 82 34 87 126 336 350 19 356 1 28 39 103 39 152 215 311 226 278 254 222 237 264 257 254 229 196 151 156 131 61 339 312 307 287 60 321 286 266 260 274 313 98 112 96 138 268 246 182 221 201 223 255 303 310 280 290 284 281 291
143 145 150 162 175 218 273 322 0 16 15 353 6 101 111 121 163 11 16 13 193 74 102 137 55 100 190 52 37 349 89 122 62 30 339 347 101 66 40 216 29 249 184 136 214 272 316 243 271 294 247 263 212 152 155 159 137 52 274 316 327 306 320 341 327 325 318 322 353 350 312 12 258 262 263 224 254 282 270 269 343 302 260 254 272 284 296
140 148 156 170 205 256 268 17 19 13 11 5 55 121 129 78 92 335 17 37 65 102 149 142 130 153 105 77 36 2 53 67 93 139 276 331 153 132 1 218 149 214 226 327 275 293 295 256 314 11 273 267 314 141 156 143 123 326 311 328 323 278 247 98 358 319 315 319 318 311 317 324 293 277 289 292 278 274 280 294 321 286 273 255 223 274 293
146 151 156 175 271 277 250 259 289 0 16 39 81 87 110 82 63 327 357 28 53 74 110 101 113 148 127 85 20 58 75 317 283 134 108 19 145 108 345 272 141 47 37 14 319 302 260 273 336 338 279 272 298 198 145 138 176 145 30 10 64 86 279 215 194 215 253 271 276 293 320 315 299 298 299 304 300 241 221 313 288 276 287 287 265 282 299
154 165 173 196 202 110 149 158 191 218 22 59 84 56 50 97 86 70 354 7 35 35 17 48 86 141 132 102 44 98 58 322 331 104 166 112 85 72 25 39 51 3 13 22 310 295 321 336 312 280 261 264 297 303 125 114 250 139 57 345 80 78 308 258 221 227 247 263 275 290 305 291 287 294 296 301 308 288 206 234 268 279 296 295 295 306 310
177 194 216 216 184 150 126 103 155 197 34 63 111 46 28 74 131 163 122 80 66 40 26 66 79 68 83 103 117 92 40 18 72 254 335 30 25 83 28 9 16 241 282 63 298 308 339 329 269 282 296 302 328 343 70 47 342 110 35 331 105 114 259 254 239 257 263 269 278 286 290 281 277 282 286 292 302 298 271 255 269 281 283 286 301 313 310
202 205 229 224 199 192 192 338 258 139 104 78 91 80 38 80 112 1 21 92 144 145 57 93 83 59 63 82 80 121 121 92 218 235 25 11 333 54 27 314 303 256 218 134 198 290 335 314 284 266 309 310 339 337 323 346 0 66 21 323 115 139 257 263 263 283 282 279 279 281 283 284 286 288 289 292 293 287 281 276 281 281 268 279 300 308 305
187 180 184 191 185 188 169 107 130 123 103 76 75 80 92 138 146 148 64 70 95 64 38 76 81 49 46 75 70 128 140 160 236 192 102 54 312 8 15 280 288 269 194 157 217 239 204 244 260 218 311 306 274 249 259 286 338 6 54 327 358 33 283 317 39 313 296 287 283 286 285 283 288 291 293 299 304 305 309 305 302 299 293 297 305 305 303
161 145 135 139 153 165 158 131 142 124 100 102 80 76 92 105 127 138 111 67 1 20 36 64 90 47 11 91 142 142 160 188 192 179 187 181 207 215 200 253 289 332 152 185 243 249 207 218 242 219 215 254 228 231 247 309 341 346 18 351 0 11 295 349 39 338 298 297 314 315 309 298 293 300 308 317 327 333 309 285 295 309 309 309 310 308 312
136 131 130 133 141 149 157 164 159 138 145 123 94 110 126 101 90 107 104 80 355 24 30 33 80 80 334 124 157 188 188 204 160 109 242 218 201 208 184 183 283 352 337 259 251 251 227 230 246 223 201 229 243 252 246 146 323 309 355 347 356 87 319 324 15 324 298 310 325 315 312 319 325 322 322 328 332 323 301 294 304 309 309 311 315 321 328
117 119 118 121 125 123 120 123 113 119 161 147 123 144 157 137 118 84 78 77 357 2 59 35 59 97 195 117 104 111 126 211 198 129 200 271 244 207 150 133 10 305 265 266 280 251 233 224 210 175 165 225 261 253 239 169 215 195 151 260 307 90 49 290 214 272 296 309 324 323 324 339 336 332 120 66 326 313 310 315 315 313 317 329 334 332 330
96 95 94 95 97 96 96 94 81 80 104 127 139 146 155 147 126 94 86 103 341 354 71 84 12 141 165 92 104 157 176 200 213 177 195 231 241 47 105 123 88 290 272 313 338 305 256 233 148 175 102 8 336 42 74 267 278 235 135 161 228 54 3 284 203 192 275 303 343 348 329 315 316 333 123 231 280 295 306 312 316 323 338 352 341 327 321
85 85 84 82 83 85 86 86 83 84 96 114 136 139 144 142 112 88 97 110 78 336 87 97 309 105 112 110 116 169 224 236 275 239 179 184 191 298 332 157 181 280 320 336 356 6 351 346 348 321 339 3 8 8 300 247 257 258 127 155 192 201 323 294 241 243 299 333 354 334 301 301 320 11 33 317 321 336 326 317 323 347 6 352 331 315 309
83 82 81 79 79 79 76 78 81 82 89 103 138 139 145 147 109 107 115 105 105 252 127 97 51 74 97 156 136 85 293 302 12 15 185 125 171 222 244 212 226 307 324 339 23 27 32 17 15 356 334 5 15 342 308 292 231 197 210 238 163 130 113 353 325 282 333 328 313 291 293 306 345 32 8 347 340 341 330 317 323 38 34 343 328 315 314
83 82 81 80 78 76 75 73 72 71 70 67 116 135 131 123 119 132 126 111 120 218 62 120 184 167 148 215 178 105 347 343 31 12 302 9 196 235 245 244 290 319 337 72 57 28 56 63 33 0 343 7 3 306 317 344 307 179 197 279 103 100 143 137 327 310 48 325 306 306 315 321 16 11 353 1 345 326 319 308 303 41 359 342 335 324 321
82 82 81 80 76 74 72 67 65 66 64 60 98 117 103 90 99 108 103 103 112 116 178 221 196 158 142 231 210 121 86 24 64 14 343 338 310 278 261 257 299 325 30 67 59 63 63 59 66 17 334 303 282 292 312 339 319 338 27 38 50 26 27 121 114 298 322 327 306 302 304 305 349 349 348 3 336 315 311 304 308 357 350 341 334 326 324
80 78 77 77 74 70 67 64 62 64 64 69 92 103 94 90 100 103 95 86 88 107 203 207 169 137 136 179 256 96 119 118 85 66 341 311 282 295 306 305 320 39 95 61 29 60 65 49 63 37 305 248 254 313 301 330 325 323 344 358 13 6 5 52 27 297 300 310 291 273 268 274 341 346 345 344 328 324 331 326 327 346 345 337 331 327 327
77 77 77 75 73 69 67 63 61 64 69 74 81 87 85 85 98 113 106 92 90 117 254 230 153 169 173 161 184 186 115 52 40 66 305 318 336 301 316 347 31 356 99 83 42 59 70 33 48 78 263 267 355 357 307 332 328 318 332 344 351 350 346 28 351 298 306 309 291 288 284 273 332 343 348 346 338 347 3 333 324 337 336 331 332 331 328
76 76 74 73 72 69 66 63 59 60 61 59 71 78 71 76 104 112 104 86 79 126 236 301 170 187 330 333 208 255 41 72 78 102 51 349 319 150 27 32 70 341 25 78 71 77 80 355 312 121 161 295 327 21 328 335 331 327 340 344 350 348 329 327 333 306 302 298 300 312 306 338 357 351 358 5 357 355 351 327 326 331 329 329 334 332 328
73 72 71 70 70 66 64 62 57 55 58 56 77 79 66 71 126 124 113 113 101 91 56 359 22 94 18 7 78 72 28 55 61 114 128 237 270 65 44 350 318 356 18 49 54 60 85 352 296 119 136 275 280 175 318 321 330 334 329 329 329 323 317 320 312 295 306 307 316 323 309 3 10 359 359 13 5 344 331 328 327 327 328 331 334 331 332
69 70 69 68 68 66 66 64 57 56 59 59 98 85 70 71 88 110 128 126 116 105 179 49 59 87 73 50 74 80 75 85 61 105 151 236 291 76 93 248 263 44 57 96 86 1 155 172 261 330 214 264 314 4 323 329 331 306 268 175 242 271 311 317 293 294 341 326 306 306 310 352 11 1 346 350 352 341 334 330 326 328 333 333 332 334 338
65 66 66 66 66 64 64 65 62 61 65 73 106 100 88 85 90 102 115 106 91 85 119 113 89 79 73 66 66 62 60 74 59 50 108 27 349 62 110 141 115 143 195 128 91 339 306 144 139 64 21 309 340 332 337 40 323 304 326 75 214 248 223 229 255 247 248 269 277 292 319 356 3 351 333 339 342 339 337 331 326 330 334 336 338 338 338
63 63 62 63 65 63 62 64 62 62 68 76 87 98 105 106 104 111 112 97 85 86 102 98 86 73 60 49 51 50 40 28 16 49 76 68 45 39 54 101 114 179 178 93 133 171 157 163 150 108 115 215 256 352 2 36 238 278 325 339 247 254 229 199 266 276 263 262 280 306 338 347 342 337 337 338 338 338 338 334 332 334 336 339 341 337 335
61 61 61 61 63 64 63 64 63 63 69 72 76 93 107 113 112 111 106 96 91 98 82 61 61 58 20 12 29 28 21 29 67 106 68 72 102 104 288 216 124 93 38 30 165 135 114 150 136 90 103 212 150 92 9 303 254 237 311 307 292 286 259 227 287 308 313 301 299 326 341 334 327 331 337 338 340 344 344 340 336 334 336 341 341 337 334
58 60 62 62 63 64 64 64 64 66 70 75 83 97 107 112 117 117 107 99 114 121 93 48 11 7 339 344 8 9 11 29 67 95 70 73 102 111 141 149 99 107 138 321 67 87 82 96 108 91 137 225 239 140 215 253 256 210 256 300 298 298 283 294 310 313 304 292 299 328 331 315 313 333 340 341 342 344 346 343 335 332 336 343 344 341 336
57 57 59 60 61 62 63 65 67 71 75 81 87 93 99 102 106 114 112 108 105 97 93 98 298 323 3 14 12 14 21 36 64 80 75 78 86 94 120 124 92 88 99 64 71 103 107 103 100 106 151 211 52 164 212 241 248 44 298 254 260 307 322 311 312 308 296 296 321 340 335 325 335 347 344 342 341 340 342 340 334 336 343 346 346 343 339
57 55 54 55 55 56 59 64 70 73 76 80 81 84 89 94 99 117 123 116 94 60 100 135 262 295 104 84 39 29 36 47 68 73 72 83 92 90 97 100 86 69 65 54 55 88 84 68 81 138 195 240 80 127 220 276 106 66 299 265 278 345 335 322 320 318 314 322 339 346 337 326 332 340 339 339 342 342 340 338 338 344 352 352 346 339 337
60 58 58 58 58 57 59 66 76 78 77 75 74 76 75 71 70 87 143 202 163 120 123 145 156 138 125 92 28 26 39 50 67 72 69 72 82 80 70 70 73 73 72 73 79 75 73 81 110 167 200 122 61 103 316 359 49 32 293 277 319 344 325 324 322 306 305 318 330 339 326 310 318 330 334 339 343 341 338 340 344 350 356 354 345 335 335
60 59 58 58 57 55 52 50 108 135 95 75 71 73 70 63 61 67 77 108 117 111 101 97 109 105 117 108 6 14 32 38 51 69 65 55 58 58 49 52 78 116 100 95 104 95 101 150 165 188 198 138 146 271 345 43 53 275 265 267 286 295 286 287 285 284 300 315 323 327 319 310 317 327 330 334 338 337 337 343 347 352 354 350 341 336 339
58 56 54 52 50 48 44 40 44 196 190 161 111 69 60 50 50 63 78 98 108 107 103 106 109 85 281 201 344 349 16 53 54 60 54 37 36 38 39 53 82 94 75 69 93 113 134 159 65 321 294 134 129 146 130 131 199 259 265 278 299 306 293 277 259 262 291 307 313 317 313 306 311 321 327 334 337 340 346 347 346 350 352 346 339 338 341
58 58 55 50 48 47 42 40 44 65 166 182 170 72 72 43 22 46 69 84 91 98 101 98 95 23 323 349 345 6 31 57 68 61 47 30 27 29 40 56 56 55 72 72 71 107 137 129 66 357 322 54 97 128 150 146 227 280 284 288 298 303 299 290 269 262 290 307 312 306 299 301 318 329 334 337 341 349 356 349 345 349 348 341 337 341 342
58 60 60 57 55 55 55 55 60 74 88 92 86 85 104 129 30 45 71 83 86 98 101 90 80 44 322 304 288 41 55 79 82 62 45 33 33 29 35 51 37 37 81 100 75 55 124 148 129 126 327 66 84 102 122 144 211 267 288 295 296 300 303 297 292 298 315 328 329 320 317 329 340 340 334 334 342 354 357 347 344 348 344 338 339 344 344
59 62 66 67 63 65 70 71 72 77 80 79 77 74 74 77 71 74 86 83 73 76 87 97 100 95 296 213 166 23 29 88 45 31 34 27 17 10 5 16 27 31 32 63 143 155 108 115 111 126 271 59 84 92 134 204 225 267 300 301 294 305 310 304 305 319 329 331 328 319 316 319 325 334 335 335 344 356 354 347 345 345 342 340 343 345 345
59 69 74 77 73 75 82 82 80 82 80 76 70 65 63 64 66 72 101 106 79 63 59 79 107 115 329 9 76 6 2 19 9 25 57 347 349 62 50 347 8 46 26 18 108 93 0 54 94 158 265 335 74 100 235 248 260 291 306 298 298 319 318 309 316 322 318 317 311 301 305 314 323 338 340 338 348 357 352 348 348 344 341 345 348 345 346
55 83 97 95 83 81 88 90 87 83 77 72 69 65 64 64 61 59 66 83 74 55 30 40 79 95 15 8 335 312 355 34 38 331 170 293 343 83 120 22 17 51 10 354 89 69 356 117 123 173 260 285 4 228 234 259 288 303 304 302 324 350 329 311 315 310 311 318 317 318 329 334 338 344 338 335 350 357 351 348 351 350 347 348 347 346 347
50 95 122 124 105 88 81 77 72 68 67 74 81 76 70 68 63 61 63 65 64 78 128 66 63 92 78 4 287 313 0 32 10 324 357 44 348 15 74 82 81 227 17 44 64 48 341 145 136 274 281 233 219 223 223 250 289 297 298 300 315 334 301 298 302 304 316 323 318 321 335 341 341 339 334 337 352 356 352 351 354 353 351 347 344 344 345
50 106 140 148 122 81 59 50 49 57 84 105 102 80 70 75 64 52 53 52 50 53 77 93 93 157 168 202 279 331 353 353 327 356 359 296 292 340 55 83 141 265 10 25 12 218 331 64 110 173 233 225 214 222 230 252 275 277 285 299 300 293 293 298 302 312 319 318 311 320 333 341 345 345 344 348 355 356 355 354 352 350 347 344 341 341 341
71 115 138 141 104 64 40 21 34 73 105 123 120 73 35 33 45 35 24 28 30 32 52 78 101 272 48 27 301 340 359 342 0 17 3 234 296 350 34 89 141 179 0 317 251 198 41 22 64 187 246 260 249 229 240 256 268 269 282 324 329 345 347 340 356 4 350 339 345 348 347 350 351 351 351 352 352 352 351 349 347 347 345 343 341 340 338
118 134 118 90 83 104 111 35 69 113 119 101 91 69 18 18 39 30 347 358 17 9 25 58 119 173 77 53 320 346 33 50 20 8 356 296 319 332 342 62 117 72 29 311 264 74 15 328 347 326 276 276 256 219 233 271 314 319 345 39 64 46 35 29 28 27 17 357 354 352 351 355 353 349 349 350 347 347 347 347 347 347 346 344 343 342 340
124 125 90 66 88 117 100 77 109 136 117 41 39 60 34 24 48 72 350 28 34 345 3 68 125 222 81 78 289 315 28 51 59 305 288 271 255 80 70 61 251 58 34 277 273 64 76 271 305 316 268 252 224 210 217 299 309 307 333 42 73 56 49 45 36 30 26 16 3 358 6 16 11 359 353 352 347 343 342 344 346 347 346 344 343 342 340
78 87 88 103 121 117 93 78 86 103 89 40 32 44 44 20 12 27 51 45 18 294 290 70 42 333 359 82 175 248 345 27 83 128 121 319 313 82 81 287 305 70 238 255 261 75 83 227 271 258 245 229 205 198 203 240 272 287 314 77 82 54 46 47 40 33 27 14 2 360 13 20 16 8 0 355 349 341 337 340 344 346 346 345 342 340 341
92 106 108 108 110 110 90 63 48 42 53 59 37 27 22 1 5 19 36 56 27 282 309 59 70 288 282 168 174 207 292 10 45 85 83 334 313 116 117 320 0 61 233 247 349 62 59 268 263 259 246 216 186 184 192 212 244 260 250 134 91 55 47 48 40 32 24 12 5 6 13 14 12 9 3 355 348 345 343 346 348 348 347 345 343 342 344
111 117 115 101 80 54 30 24 29 37 46 47 43 29 354 356 21 29 322 301 285 82 307 302 328 1 351 119 162 192 238 5 33 81 111 295 330 63 59 31 17 203 236 2 61 67 215 227 234 243 233 199 186 193 199 211 233 235 199 146 98 64 63 69 53 31 14 8 4 4 7 8 7 6 3 357 353 351 351 354 354 351 348 347 346 346 346
126 107 88 73 36 21 15 355 5 42 49 33 66 102 21 337 326 235 285 299 279 197 293 303 56 22 321 292 72 49 324 31 67 79 68 328 21 59 64 257 242 241 1 34 52 232 237 238 240 238 217 194 196 202 200 208 221 209 179 153 108 79 76 63 45 22 356 350 351 355 2 4 1 0 1 2 0 356 353 355 356 354 352 351 349 347 348
154 18 36 41 5 356 21 356 350 28 59 82 182 162 165 209 223 224 238 229 153 61 340 57 99 108 263 269 44 69 311 356 36 38 301 17 33 38 228 235 263 34 43 326 283 277 265 259 251 234 216 209 204 196 195 206 204 186 177 178 158 119 100 47 29 14 340 336 341 349 358 360 356 354 356 360 3 1 357 356 356 356 356 355 350 347 349
110 72 81 82 11 335 75 86 357 1 165 206 205 182 176 190 203 211 220 172 125 138 214 126 106 104 268 286 325 27 27 45 47 233 127 82 64 263 240 210 45 38 34 295 277 258 245 244 239 219 210 205 194 185 191 195 186 177 175 184 186 178 182 215 218 220 303 325 335 347 354 354 353 351 351 353 359 2 359 355 354 357 357 355 351 349 351
86 57 82 97 55 358 43 122 225 223 187 201 209 201 196 217 241 239 216 178 163 165 173 143 99 102 246 276 23 352 6 55 65 264 276 102 164 292 358 43 273 225 200 235 251 245 238 244 241 220 208 195 181 184 196 190 181 179 177 178 186 193 200 203 201 208 265 310 326 340 346 346 347 351 352 351 354 359 359 353 352 356 359 356 352 352 353
104 59 74 111 149 285 309 145 178 290 242 207 228 230 170 108 309 275 215 174 158 144 139 131 106 89 318 27 81 219 285 20 80 247 168 106 172 316 9 0 277 252 205 211 229 234 230 230 221 210 199 184 176 185 196 191 184 183 180 180 189 199 201 200 201 209 239 283 309 328 335 337 342 350 352 348 348 355 0 354 349 353 359 359 356 356 356
79 79 76 99 140 200 211 105 45 318 291 307 353 320 136 145 249 252 202 158 150 155 154 138 121 129 247 330 70 103 260 258 172 249 7 34 178 214 123 262 272 270 245 222 220 227 234 225 202 184 181 181 182 192 198 192 189 190 189 190 195 198 195 194 198 208 224 234 241 294 317 325 336 344 347 345 345 350 355 353 351 356 2 2 358 355 354
57 66 74 89 104 160 204 99 64 302 289 296 293 233 191 191 246 235 189 162 150 116 93 80 83 117 164 21 47 24 271 241 153 117 76 231 199 174 177 230 236 234 231 226 221 223 226 208 174 171 188 194 193 196 195 190 191 194 194 194 195 194 192 194 198 202 207 208 207 243 290 306 322 333 336 338 340 343 351 358 359 1 3 4 359 354 351
35 52 61 103 138 165 172 157 164 221 241 243 233 209 185 181 224 208 179 158 122 86 95 156 133 79 59 21 3 211 242 204 120 134 239 233 183 149 186 232 235 228 230 239 235 221 212 193 175 183 198 201 199 200 196 193 193 194 193 194 195 191 188 191 197 197 195 195 199 223 257 271 293 313 320 331 343 350 356 1 4 5 4 2 358 353 349
51 73 27 342 97 148 151 151 189 215 217 220 216 195 183 196 201 177 161 145 126 125 180 182 101 86 112 240 218 137 99 73 230 244 243 233 198 180 201 225 234 224 219 234 240 226 212 202 195 194 196 197 199 197 193 190 192 193 192 192 192 189 187 191 196 195 192 193 200 214 226 229 255 296 322 355 9 5 356 353 358 3 3 358 354 351 349